Date String (YYYY-MM-DD hh:mm:ss) UTC,Instrument flags,absolute air pressure of the measurement (hPa),sample flow rate (lpm),inlet stack bypass flow (lpm),air temperature of the measurement (°C),ambient temperature measured by the external sensor (°C),aerosol sample conditioner tube jacket temperature (°C),OPC LED temperature (°C),internal box temperature (°C),relative humidity of the measurement (%),span deviation,mass concentration of particles derived from Lorenz-Mie calculation of OPC scattering (μg/m³),mass concentration of particles derived from Lorenz-Mie calculation of OPC scattering (μg/m³),mass concentration of particles derived from Lorenz-Mie calculation of OPC scattering (μg/m³)
DateTimeUTC,F1_M11,P_M11,Q1_M11,Q2_M11,T1_M11,T2_M11,T3_M11,T4_M11,T5_M11,U1_M11,ZSPAN_M11,X2_M11,X0_M11,X1_M11
2023-07-09 12:00:00,SystemResetWarning,0831.7,5.00,000.00,029.9,028.5,000.0,038.4,031.4,33.0,-003.1,0009.24,0016.26,0008.24
2023-07-09 12:01:00,SystemResetWarning,0831.6,5.00,000.00,029.9,028.5,000.0,038.4,031.4,32.7,-003.0,0009.17,0016.20,0008.18
2023-07-09 12:02:00,SystemResetWarning,0831.6,5.00,000.00,029.9,028.5,000.0,038.4,031.4,32.4,-003.1,0009.06,0015.45,0008.14
2023-07-09 12:03:00,SystemResetWarning,0831.6,4.99,000.00,029.9,028.5,000.0,038.4,031.4,32.6,-003.0,0009.01,0015.08,0008.12
2023-07-09 12:04:00,SystemResetWarning,0831.6,5.00,000.00,029.9,028.6,000.0,038.4,031.4,32.9,-002.9,0008.99,0015.18,0008.09
2023-07-09 12:05:00,SystemResetWarning,0831.6,5.01,000.00,029.9,028.6,000.0,038.4,031.4,33.1,-002.8,0008.97,0016.93,0008.11
2023-07-09 12:06:00,SystemResetWarning,0831.6,5.00,000.00,029.9,028.6,000.0,038.4,031.4,33.0,-002.4,0008.93,0016.87,0008.11
2023-07-09 12:07:00,SystemResetWarning,0831.6,5.00,000.00,029.9,028.6,000.0,038.5,031.4,33.0,-002.3,0008.77,0016.48,0008.03
2023-07-09 12:08:00,SystemResetWarning,0831.6,5.00,000.00,030.0,028.6,000.0,038.5,031.5,33.1,-002.2,0008.60,0016.13,0007.92
2023-07-09 12:09:00,SystemResetWarning,0831.6,5.00,000.00,030.0,028.6,000.0,038.5,031.5,33.2,-002.2,0008.55,0016.11,0007.88
2023-07-09 12:10:00,SystemResetWarning,0831.7,5.01,000.00,030.0,028.6,000.0,038.5,031.5,33.3,-001.8,0008.57,0016.15,0007.86
2023-07-09 12:11:00,SystemResetWarning,0831.6,5.00,000.00,030.0,028.6,000.0,038.5,031.5,33.4,-002.1,0008.48,0015.21,0007.80
2023-07-09 12:12:00,SystemResetWarning,0831.6,5.00,000.00,030.0,028.6,000.0,038.5,031.5,33.5,-002.0,0008.43,0014.48,0007.78
2023-07-09 12:13:00,SystemResetWarning,0831.6,5.00,000.00,030.0,028.6,000.0,038.5,031.5,33.7,-002.1,0008.46,0014.68,0007.78
2023-07-09 12:14:00,SystemResetWarning,0831.6,4.99,000.00,030.0,028.7,000.0,038.5,031.5,33.9,-002.4,0008.53,0015.30,0007.77
2023-07-09 12:15:00,SystemResetWarning,0831.6,5.01,000.00,030.0,028.7,000.0,038.6,031.5,34.1,-002.6,0008.54,0015.16,0007.77
2023-07-09 12:16:00,SystemResetWarning,0831.7,5.00,000.00,030.0,028.7,000.0,038.6,031.5,34.2,-002.6,0008.54,0013.90,0007.75
2023-07-09 12:17:00,SystemResetWarning,0831.6,5.01,000.00,030.1,028.7,000.0,038.6,031.5,34.3,-003.0,0008.54,0013.34,0007.74
2023-07-09 12:18:00,SystemResetWarning,0831.6,4.99,000.00,030.1,028.7,000.0,038.6,031.6,34.4,-002.9,0008.61,0013.50,0007.80
2023-07-09 12:19:00,SystemResetWarning,0831.6,4.99,000.00,030.1,028.7,000.0,038.6,031.6,34.6,-003.2,0008.75,0013.97,0007.89
2023-07-09 12:20:00,SystemResetWarning,0831.6,5.00,000.00,030.1,028.7,000.0,038.6,031.6,34.6,-003.3,0008.81,0014.04,0007.92
2023-07-09 12:21:00,SystemResetWarning,0831.6,5.00,000.00,030.1,028.8,000.0,038.6,031.6,34.8,-003.4,0008.78,0014.82,0007.91
2023-07-09 12:22:00,SystemResetWarning,0831.6,5.00,000.00,030.1,028.8,000.0,038.6,031.6,34.9,-003.1,0008.83,0015.45,0007.93
2023-07-09 12:23:00,SystemResetWarning,0831.6,4.99,000.00,030.1,028.8,000.0,038.6,031.6,34.9,-003.2,0008.93,0016.54,0007.95
2023-07-09 12:24:00,SystemResetWarning,0831.6,5.00,000.00,030.1,028.8,000.0,038.6,031.6,34.7,-003.2,0009.00,0016.72,0007.99
2023-07-09 12:25:00,SystemResetWarning,0831.6,4.99,000.00,030.1,028.8,000.0,038.6,031.6,34.4,-003.1,0008.92,0016.97,0007.99
2023-07-09 12:26:00,SystemResetWarning,0831.6,4.99,000.00,030.1,028.8,000.0,038.7,031.6,34.3,-003.1,0008.82,0016.48,0007.96
2023-07-09 12:27:00,SystemResetWarning,0831.6,5.00,000.00,030.1,028.8,000.0,038.7,031.6,34.2,-003.0,0008.80,0016.34,0007.96
2023-07-09 12:28:00,SystemResetWarning,0831.6,5.01,000.00,030.1,028.8,000.0,038.7,031.6,34.2,-003.1,0008.80,0015.86,0007.97
2023-07-09 12:29:00,SystemResetWarning,0831.6,5.00,000.00,030.2,028.8,000.0,038.7,031.6,34.5,-003.0,0008.83,0016.03,0007.98
2023-07-09 12:30:00,SystemResetWarning,0831.5,4.98,000.00,030.2,028.8,000.0,038.7,031.7,35.1,-002.9,0008.78,0015.88,0007.91
2023-07-09 12:31:00,SystemResetWarning,0831.5,5.03,000.00,030.4,028.8,000.0,038.7,031.8,35.0,-002.6,0008.62,0015.66,0007.78
2023-07-09 12:32:00,SystemResetWarning,0831.6,4.96,000.00,030.6,028.8,000.0,038.7,031.9,34.5,-002.7,0008.43,0014.67,0007.65
2023-07-09 12:33:00,SystemResetWarning,0831.6,5.03,000.00,030.7,028.9,000.0,038.7,031.9,34.3,-003.0,0008.25,0013.78,0007.50
2023-07-09 12:34:00,SystemResetWarning,0831.7,4.99,000.00,030.8,028.9,000.0,038.8,031.9,34.2,-002.8,0007.99,0012.40,0007.34
2023-07-09 12:35:00,SystemResetWarning,0831.7,4.99,000.00,030.8,028.9,000.0,038.9,031.9,34.2,-002.8,0007.81,0012.07,0007.22
2023-07-09 12:36:00,SystemResetWarning,0831.6,5.00,000.00,030.9,027.9,000.0,038.8,031.8,34.0,-002.8,0007.77,0011.55,0007.17
2023-07-09 12:37:00,SystemResetWarning,0831.7,5.00,000.00,030.8,026.3,000.0,038.7,031.6,33.9,-002.8,0007.80,0011.53,0007.14
2023-07-09 12:38:00,SystemResetWarning,0831.7,5.02,000.00,030.7,025.8,000.0,038.7,031.4,34.2,-003.0,0007.76,0011.65,0007.06
2023-07-09 12:39:00,SystemResetWarning,0831.7,5.00,000.00,030.6,026.0,000.0,038.8,031.1,34.5,-003.0,0007.70,0011.60,0006.97
2023-07-09 12:40:00,SystemResetWarning,0831.7,5.00,000.00,030.5,026.4,000.0,038.8,031.1,34.6,-003.2,0007.61,0011.43,0006.87
2023-07-09 12:41:00,SystemResetWarning,0831.7,5.00,000.00,030.4,026.7,000.0,038.8,031.2,34.7,-003.3,0007.56,0011.34,0006.84
2023-07-09 12:42:00,SystemResetWarning,0831.7,5.00,000.00,030.4,027.1,000.0,038.9,031.2,34.7,-003.7,0007.64,0011.77,0006.90
2023-07-09 12:43:00,SystemResetWarning,0831.7,5.00,000.00,030.4,027.3,000.0,038.9,031.3,34.6,-003.6,0007.75,0012.26,0006.98
2023-07-09 12:44:00,SystemResetWarning,0831.7,5.00,000.00,030.4,027.6,000.0,038.9,031.3,34.5,-003.3,0007.88,0012.94,0007.07
2023-07-09 12:45:00,SystemResetWarning,0831.7,5.00,000.00,030.4,027.8,000.0,038.8,031.4,34.6,-003.5,0008.05,0013.65,0007.16
2023-07-09 12:46:00,SystemResetWarning,0831.7,4.99,000.00,030.4,028.0,000.0,038.9,031.4,34.6,-003.4,0008.18,0013.81,0007.24
2023-07-09 12:47:00,SystemResetWarning,0831.7,5.00,000.00,030.4,028.1,000.0,038.8,031.4,34.4,-003.4,0008.20,0013.81,0007.26
2023-07-09 12:48:00,SystemResetWarning,0831.7,5.00,000.00,030.4,028.2,000.0,038.9,031.4,34.5,-003.2,0008.22,0013.83,0007.27
2023-07-09 12:49:00,SystemResetWarning,0831.8,5.00,000.00,030.4,028.3,000.0,038.9,031.5,34.8,-002.9,0008.25,0013.80,0007.31
2023-07-09 12:50:00,SystemResetWarning,0831.7,4.99,000.00,030.4,028.4,000.0,038.8,031.5,34.9,-002.7,0008.25,0013.95,0007.32
2023-07-09 12:51:00,SystemResetWarning,0831.7,5.00,000.00,030.4,028.4,000.0,038.8,031.5,34.9,-002.5,0008.26,0014.06,0007.35
2023-07-09 12:52:00,SystemResetWarning,0831.7,4.99,000.00,030.4,028.5,000.0,038.9,031.5,35.1,-002.4,0008.29,0014.26,0007.36
2023-07-09 12:53:00,SystemResetWarning,0831.7,5.03,000.00,030.5,028.6,000.0,038.9,031.6,35.0,-002.4,0008.30,0014.18,0007.35
2023-07-09 12:54:00,SystemResetWarning,0831.9,4.97,000.00,030.7,028.6,000.0,038.9,031.7,34.6,-002.3,0008.25,0013.96,0007.34
2023-07-09 12:55:00,SystemResetWarning,0831.7,5.02,000.00,030.8,028.6,000.0,038.9,031.8,34.4,-002.2,0008.22,0013.44,0007.33
2023-07-09 12:56:00,SystemResetWarning,0831.8,4.99,000.00,030.9,028.7,000.0,038.9,031.7,34.6,-002.2,0008.19,0012.91,0007.32
2023-07-09 12:57:00,SystemResetWarning,0832.1,4.99,000.00,030.9,028.7,000.0,039.0,031.7,34.7,-002.2,0008.16,0012.95,0007.31
2023-07-09 12:58:00,SystemResetWarning,0831.9,5.02,000.00,031.0,028.7,000.0,039.0,031.8,34.6,-002.1,0008.19,0013.53,0007.30
2023-07-09 12:59:00,SystemResetWarning,0832.0,5.00,000.00,031.0,028.8,000.0,039.1,031.8,34.8,-002.2,0008.16,0013.53,0007.28
